User: anonymous   Login
Location: Oshawa
(43.9000°N, 78.8670°W)
Time: 05:48:26
(UTC-04:00)
Language:

Cosmos 1953 Rocket - Orbit

View from above orbital plane
View from above orbital plane
View from above satellite
View from above satellite

Ground track
Ground track

The orbit data is extracted from the following two-line orbital elements,

1 19211U 88050B   15109.79997389  .00000727  00000-0  86835-4 0  9992
2 19211 082.5283 220.5786 0021656 194.3724 332.1127 14.82711943449808
Epoch (UTC): 19 April 2015 19:11:57
Eccentricity: 0.0021656
inclination: 82.5283°
perigee height: 605 km
apogee height: 636 km
right ascension of ascending node: 220.5786°
argument of perigee: 194.3724°
revolutions per day: 14.82711943
mean anomaly at epoch: 332.1127°
orbit number at epoch: 44980

The dashed part of the orbit path shows where the satellite is in the earth's shadow,  

DLR